Regional Weather Roundup
Issued by NWS

Home | Current Version | Previous Version | Graphics & Text | Print | Product List | Glossary On
Versions: 1 2 3 4 5 6 7 8 9 10 11 12 13 14 15 16 17 18 19 20 21 22 23 24 25 26 27 28 29 30 31 32 33 34 35 36 37 38 39 40 41 42 43 44 45 46 47 48 49 50
131
ASUS43 KOAX 212202
RWRNE

WEATHER ROUNDUP FOR NEBRASKA
NATIONAL WEATHER SERVICE OMAHA NE
400 PM CST SUN JAN 21 2018

NOTES: SATELLITE DATA IS BEING USED TO AUGMENT CLOUD COVER ABOVE
       12000 FEET.
       "FAIR" INDICATES FEW OR NO CLOUDS BELOW 12,000 FEET WITH NO
       SIGNIFICANT WEATHER AND/OR OBSTRUCTIONS TO VISIBILITY.


NEZ001>004-019>022-054>056-212300-
NEBRASKA PANHANDLE

CITY           SKY/WX    TMP DP  RH WIND       PRES   REMARKS
SCOTTSBLUFF    MIX PCPN  29  24  82 N21G30    29.93R WCI  16
ALLIANCE       FOG       27  26  96 N22       29.87R VSB 1   WCI  13
CHADRON        LGT SNOW  29  26  89 NW8       29.97R VSB 1   WCI  21
GORDON         LGT SNOW  30  27  90 N17       29.90R VSB 1   WCI  18
KIMBALL        LGT SNOW  26  24  93 N21       29.87R WCI  12
SIDNEY         LGT SNOW  27  25  92 N22       29.84R VSB 1   WCI  13
$$

NEZ057>060-069>072-079>082-212300-
SOUTHWEST NEBRASKA

CITY           SKY/WX    TMP DP  RH WIND       PRES   REMARKS
NORTH PLATTE   SNOW      33  30  88 N16G28    29.74R VSB 1/2 WCI  23
IMPERIAL       LGT SNOW  31  30  96 N23G35    29.73R VSB 1   WCI  18
LEXINGTON      LGT SNOW  34  32  91 NE17      29.69R WCI  23
MCCOOK         SNOW      32  31  96 NE18      29.68R VSB 1/2 WCI  20
OGALLALA       SNOW      32  30  91 N24       29.80R VSB 1/2 WCI  19
$$

NEZ005>010-023>029-035>040-094-212300-
NORTH CENTRAL NEBRASKA

CITY           SKY/WX    TMP DP  RH WIND       PRES   REMARKS
VALENTINE      LGT SNOW  32  29  88 N15G24    29.88S FOG     WCI  22
AINSWORTH      CLOUDY    32  31  95 N17G25    29.87R WCI  21
BROKEN BOW     LGT SNOW  34  31  88 N22G33    29.72S FOG     WCI  22
O`NEILL        CLOUDY    35  32  87 N23G29    29.83R WCI  24
ORD            LGT SNOW  35  31  85 N20G31    29.74S FOG     WCI  24
THEDFORD       LGT SNOW  32  31  94 N18G30    29.82R WCI  21
$$

NEZ041-046>049-061>064-073>077-083>087-212300-
SOUTH CENTRAL NEBRASKA

CITY           SKY/WX    TMP DP  RH WIND       PRES   REMARKS
GRAND ISLAND   LGT RAIN  34  34 100 NE24G31   29.68F FOG     WCI  21
AURORA         CLOUDY    34  34 100 NE21G28   29.68R FOG     WCI  22
HASTINGS       CLOUDY    33  32  96 NE22G32   29.66S FOG     WCI  21
HEBRON         FOG       41  40  97 NE12      29.65R VSB 1/4
HOLDREGE       LGT RAIN  33  33 100 NE22G32   29.68R WCI  20
KEARNEY        MIX PCPN  33  32  96 N18       29.70R FOG     WCI  22
YORK           CLOUDY    36  36 100 NE20      29.68R FOG     WCI  25
$$

NEZ011>018-030>034-042>045-212300-
NORTHEAST NEBRASKA

CITY           SKY/WX    TMP DP  RH WIND       PRES   REMARKS
NORFOLK        CLOUDY    50  27  40 NE22G28   29.75R
ALBION         CLOUDY    39  30  70 N22G30    29.75R WCI  28
BLAIR          CLOUDY    38  38  97 NE17      29.70S FOG     WCI  29
COLUMBUS       MIX PCPN  36  34  92 N18       29.71F FOG     WCI  26
FREMONT        CLOUDY    37  37  99 NE9       29.72S FOG     WCI  30
TEKAMAH        CLOUDY    37  35  92 N17       29.74S FOG     WCI  27
WAYNE          CLOUDY    39  30  69 NE17G23   29.77F WCI  30
$$

NEZ050>053-065>068-078-088>093-212300-
SOUTHEAST NEBRASKA

CITY           SKY/WX    TMP DP  RH WIND       PRES   REMARKS
LINCOLN        FOG       38  37  97 NE12      29.69S VSB 1/2 WCI  30
OMAHA EPPLEY   DRZL/FOG  40  39  97 N8        29.71F VSB 1   WCI  34
BEATRICE       LGT RAIN  43  43 100 NE13      29.64S VSB 1/4
FALLS CITY     CLOUDY    56  46  69 SE6       29.64F
NEBRASKA CITY  FOG       43  43 100 N7        29.67S VSB<1/4
PLATTSMOUTH    FOG       40  40 100 N8        29.70R VSB<1/4 WCI  35
$$

NEZ044-045-051>053-067-212300-
OMAHA AREA

CITY           SKY/WX    TMP DP  RH WIND       PRES   REMARKS
OMAHA EPPLEY   DRZL/FOG  40  39  97 N8        29.71F VSB 1   WCI  34
BLAIR          CLOUDY    38  38  97 NE17      29.70S FOG     WCI  29
FREMONT        CLOUDY    37  37  99 NE9       29.72S FOG     WCI  30
MILLARD        CLOUDY    41  40  95 NE6       29.71R FOG
OFFUTT AFB     CLOUDY    40  40  99 NE7       29.70R FOG
PLATTSMOUTH    FOG       40  40 100 N8        29.70R VSB<1/4 WCI  35
WAHOO          CLOUDY    37  36  94 NE15      29.70S FOG     WCI  28
$$




USA.gov is the U.S. government's official web portal to all federal, state and local government web resources and services.